Tallahassee, FL

12:41 PM EDT on April 24, 2018 (GMT -0400)
Tallahassee Regional

Weather History for KTLH - February, 2012

Change the Weather History Date:

Tuesday, February 14, 2012

  Actual Average Record
Temperature  
Mean Temperature 49 °F 54 °F  
Max Temperature 68 °F 67 °F 86 °F (1932)
Min Temperature 29 °F 42 °F 13 °F (1899)
Degree Days  
Heating Degree Days 16    
Month to date heating degree days 145  
Since 1 July heating degree days 956  
Cooling Degree Days 0    
Month to date cooling degree days 6  
Year to date cooling degree days 19  
Moisture  
Dew Point 48 °F    
Average Humidity 75    
Maximum Humidity 100    
Minimum Humidity 50    
Precipitation  
Precipitation 0.09 in 0.16 in 2.82 in (1997)
Month to date precipitation 0.12 2.22  
Year to date precipitation 2.97 6.56  
Sea Level Pressure  
Sea Level Pressure 30.05 in    
Wind  
Wind Speed 5 mph (SE)    
Max Wind Speed 18 mph    
Max Gust Speed 24 mph    
Visibility 6 miles    
Events Fog , Rain    
T = Trace of Precipitation, MM = Missing Value Source: NWS Daily Summary

Daily Weather History Graph

Daily Weather History Graph

Search for Another Location

Airport or City:

Astronomy

Feb. 14, 2012 Rise Set
Actual Time 7:19 AM EST 6:24 PM EST
Civil Twilight 6:54 AM EST 6:49 PM EST
Nautical Twilight 6:26 AM EST 7:17 PM EST
Astronomical Twilight 5:58 AM EST 7:45 PM EST
Moon 12:54 AM EST (2/14) 11:39 AM EST (2/14)
Length of Visible Light 11h 54m
Length of Day
11h 05m
Waning Gibbous, 50% of the Moon is Illuminated
Feb 14
Waning Gibbous
Feb 14
Last Quarter
Feb 21
New
Feb 29
First Quarter
Mar 8
Full

Hourly Weather History & Observations

Time (EST) Temp. Windchill Dew Point Humidity Pressure Visibility Wind Dir Wind Speed Gust Speed Precip Events Conditions
12:53 AM 30.9 °F - 23.0 °F 72% 30.12 in 10.0 mi Calm Calm - N/A   Clear
1:53 AM 30.0 °F - 24.1 °F 79% 30.09 in 10.0 mi Calm Calm - N/A   Clear
2:53 AM 30.0 °F - 23.0 °F 75% 30.08 in 10.0 mi Calm Calm - N/A   Clear
3:53 AM 28.4 °F - 24.8 °F 86% 30.06 in 10.0 mi Calm Calm - N/A   Clear
4:53 AM 33.1 °F 28.7 °F 26.1 °F 75% 30.03 in 10.0 mi SE 4.6 mph - N/A   Clear
5:53 AM 37.0 °F 34.5 °F 27.0 °F 67% 30.07 in 10.0 mi NNW 3.5 mph - N/A   Partly Cloudy
6:53 AM 41.0 °F - 28.9 °F 62% 30.07 in 10.0 mi Calm Calm - N/A   Partly Cloudy
7:53 AM 44.1 °F 42.5 °F 30.0 °F 58% 30.09 in 10.0 mi NNE 3.5 mph - N/A   Mostly Cloudy
8:53 AM 48.0 °F - 30.9 °F 52% 30.09 in 10.0 mi East 9.2 mph - 0.00 in   Mostly Cloudy
9:53 AM 50.0 °F - 37.9 °F 63% 30.09 in 10.0 mi ESE 6.9 mph - 0.00 in Rain Light Rain
10:29 AM 51.8 °F - 37.4 °F 58% 30.09 in 10.0 mi ESE 8.1 mph - 0.00 in   Overcast
10:36 AM 51.8 °F - 37.4 °F 58% 30.09 in 10.0 mi ESE 8.1 mph - 0.00 in   Overcast
10:53 AM 53.1 °F - 39.0 °F 59% 30.09 in 10.0 mi ESE 8.1 mph - 0.00 in   Overcast
11:53 AM 60.1 °F - 46.9 °F 62% 30.06 in 10.0 mi SE 9.2 mph - N/A   Overcast
12:46 PM 64.4 °F - 55.4 °F 73% 30.04 in 10.0 mi South 12.7 mph 17.3 mph N/A   Overcast
12:53 PM 66.0 °F - 55.9 °F 70% 30.03 in 10.0 mi South 10.4 mph - N/A   Overcast
1:53 PM 64.0 °F - 57.9 °F 80% 30.01 in 7.0 mi South 11.5 mph 19.6 mph 0.00 in Rain Light Rain
2:04 PM 62.6 °F - 59.0 °F 88% 30.01 in 4.0 mi SSE 12.7 mph 16.1 mph 0.00 in Rain Light Rain
2:11 PM 62.6 °F - 60.8 °F 94% 30.01 in 2.0 mi SSE 6.9 mph - 0.00 in   Overcast
2:25 PM 62.6 °F - 60.8 °F 94% 30.01 in 2.0 mi South 9.2 mph - 0.01 in Rain Light Rain
2:53 PM 62.1 °F - 60.1 °F 93% 30.01 in 2.0 mi South 8.1 mph - 0.01 in Rain Light Rain
3:30 PM 62.6 °F - 60.8 °F 94% 29.99 in 2.5 mi SSE 6.9 mph - 0.03 in Rain Light Rain
3:43 PM 62.6 °F - 60.8 °F 94% 29.98 in 5.0 mi SSE 10.4 mph - 0.03 in Rain Light Rain
3:53 PM 62.1 °F - 61.0 °F 96% 29.99 in 7.0 mi SSE 11.5 mph - 0.03 in Rain Light Rain
4:53 PM 62.1 °F - 61.0 °F 96% 30.00 in 3.0 mi South 5.8 mph - 0.01 in Rain Light Rain
5:53 PM 62.1 °F - 60.1 °F 93% 30.01 in 3.0 mi SSE 8.1 mph - 0.02 in Rain Light Rain
6:53 PM 61.0 °F - 60.1 °F 97% 30.02 in 3.0 mi SSE 6.9 mph - 0.00 in   Overcast
7:53 PM 61.0 °F - 60.1 °F 97% 30.04 in 3.0 mi Calm Calm - 0.01 in Rain Light Rain
8:53 PM 60.1 °F - 60.1 °F 100% 30.06 in 9.0 mi East 3.5 mph - 0.01 in   Overcast
9:00 PM 60.8 °F - 60.8 °F 100% 30.06 in 9.0 mi East 4.6 mph - N/A   Overcast
9:53 PM 60.1 °F - 60.1 °F 100% 30.06 in 2.0 mi Calm Calm - N/A   Overcast
9:55 PM 60.8 °F - 60.8 °F 100% 30.06 in 7.0 mi Calm Calm - N/A   Overcast
10:16 PM 59.0 °F - 59.0 °F 100% 30.06 in 0.5 mi Calm Calm - N/A Fog Fog
10:28 PM 57.2 °F - 57.2 °F 100% 30.07 in 0.5 mi Calm Calm - N/A Fog Fog
10:53 PM 59.0 °F - 59.0 °F 100% 30.07 in 0.8 mi Calm Calm - N/A   Overcast
11:53 PM 57.9 °F - 57.0 °F 97% 30.07 in 0.2 mi Calm Calm - N/A Fog Fog